Simultaneous Nadir Overpasses (SNOs) Predictions

Prediction of SNOs between METOP-A and NOAA-19 Satellite Orbit:

Table of predicted SNOs for the next 14.0 days since TLE Epoch: 12/25/2016
Index Date (METOP-A) Time (METOP-A) Lat,Lon (METOP-A) SZA (METOP-A ) Date (NOAA-19) Time (NOAA-19) Lat,Lon (NOAA-19) SZA (NOAA-19 ) Distance(km) Time Diff (sec)
1 12/29/2016 17:39:14 76.84, -81.78 99.94 12/29/2016 17:38:01 76.86, -82.57 99.95 20.15 73
2 12/29/2016 18:29:58 -76.74, 85.17 80.16 12/29/2016 18:29:03 -76.75, 85.12 80.16 1.21 55
3 12/29/2016 19:20:38 76.74,-107.53 99.83 12/29/2016 19:20:00 76.74,-107.57 99.83 1.04 38
4 12/29/2016 20:11:20 -76.73, 59.76 80.19 12/29/2016 20:11:04 -76.71, 59.76 80.20 1.53 16
5 12/29/2016 21:02:00 76.72,-132.94 99.81 12/29/2016 21:02:01 76.70,-132.94 99.79 1.50 1
6 12/29/2016 21:52:42 -76.71, 34.36 80.21 12/29/2016 21:53:05 -76.68, 34.40 80.24 3.55 23
7 12/29/2016 22:43:22 76.70,-158.35 99.78 12/29/2016 22:44:02 76.67,-158.30 99.76 3.52 40
8 12/29/2016 23:34:04 -76.69, 8.95 80.23 12/29/2016 23:35:07 -76.69, 8.86 80.23 2.44 63
9 12/30/2016 00:24:49 76.46, 175.40 99.53 12/30/2016 00:25:59 76.46, 177.03 99.55 42.39 70




NCC Satellite Simultaneous Nadir Overpasses (SNOs) Prediction Service
